Year,Month,Day,Hour,Minute,Value (Times are PST for temperature in C)
2011,08,21,00,00,17.30
2011,08,21,00,01,17.30
2011,08,21,00,02,17.30
2011,08,21,00,03,17.30
2011,08,21,00,04,17.30
2011,08,21,00,05,17.30
2011,08,21,00,06,17.30
2011,08,21,00,07,17.30
2011,08,21,00,08,17.30
2011,08,21,00,09,17.20
2011,08,21,00,10,17.30
2011,08,21,00,11,17.30
2011,08,21,00,12,17.30
2011,08,21,00,13,17.30
2011,08,21,00,14,17.30
2011,08,21,00,15,17.30
2011,08,21,00,16,17.30
2011,08,21,00,17,17.30
2011,08,21,00,18,17.30
2011,08,21,00,19,17.30
2011,08,21,00,20,17.30
2011,08,21,00,21,17.30
2011,08,21,00,22,17.30
2011,08,21,00,23,17.30
2011,08,21,00,24,17.30
2011,08,21,00,25,17.30
2011,08,21,00,26,17.30
2011,08,21,00,27,17.30
2011,08,21,00,28,17.30
2011,08,21,00,29,17.20
2011,08,21,00,30,17.20
2011,08,21,00,31,17.20
2011,08,21,00,32,17.20
2011,08,21,00,33,17.20
2011,08,21,00,34,17.20
2011,08,21,00,35,17.20
2011,08,21,00,36,17.10
2011,08,21,00,37,17.10
2011,08,21,00,38,17.10
2011,08,21,00,39,17.10
2011,08,21,00,40,17.10
2011,08,21,00,41,17.10
2011,08,21,00,42,17.00
2011,08,21,00,43,17.00
2011,08,21,00,44,17.00
2011,08,21,00,45,17.00
2011,08,21,00,46,17.00
2011,08,21,00,47,17.00
2011,08,21,00,48,17.00
2011,08,21,00,49,17.00
2011,08,21,00,50,17.00
2011,08,21,00,51,16.90
2011,08,21,00,52,16.90
2011,08,21,00,53,16.90
2011,08,21,00,54,16.90
2011,08,21,00,55,16.90
2011,08,21,00,56,16.90
2011,08,21,00,57,16.90
2011,08,21,00,58,16.90
2011,08,21,00,59,16.90
2011,08,21,01,00,16.90
2011,08,21,01,01,16.90
2011,08,21,01,02,16.80
2011,08,21,01,03,16.80
2011,08,21,01,04,16.80
2011,08,21,01,05,16.80
2011,08,21,01,06,16.80
2011,08,21,01,07,16.80
2011,08,21,01,08,16.80
2011,08,21,01,09,16.80
2011,08,21,01,10,16.70
2011,08,21,01,11,16.70
2011,08,21,01,12,16.70
2011,08,21,01,13,16.70
2011,08,21,01,14,16.70
2011,08,21,01,15,16.70
2011,08,21,01,16,16.60
2011,08,21,01,17,16.60
2011,08,21,01,18,16.60
2011,08,21,01,19,16.60
2011,08,21,01,20,16.60
2011,08,21,01,21,16.60
2011,08,21,01,22,16.60
2011,08,21,01,23,16.60
2011,08,21,01,24,16.60
2011,08,21,01,25,16.70
2011,08,21,01,26,16.70
2011,08,21,01,27,16.70
2011,08,21,01,28,16.70
2011,08,21,01,29,16.70
2011,08,21,01,30,16.70
2011,08,21,01,31,16.70
2011,08,21,01,32,16.80
2011,08,21,01,33,16.80
2011,08,21,01,34,16.80
2011,08,21,01,35,16.80
2011,08,21,01,36,16.80
2011,08,21,01,37,16.80
2011,08,21,01,38,16.80
2011,08,21,01,39,16.80
2011,08,21,01,40,16.80
2011,08,21,01,41,16.90
2011,08,21,01,42,16.90
2011,08,21,01,43,16.90
2011,08,21,01,44,16.90
2011,08,21,01,45,16.90
2011,08,21,01,46,17.00
2011,08,21,01,47,17.00
2011,08,21,01,48,17.00
2011,08,21,01,49,17.00
2011,08,21,01,50,17.00
2011,08,21,01,51,17.00
2011,08,21,01,52,17.00
2011,08,21,01,53,17.00
2011,08,21,01,54,17.00
2011,08,21,01,55,17.00
2011,08,21,01,56,17.00
2011,08,21,01,57,17.00
2011,08,21,01,58,17.00
2011,08,21,01,59,17.00
2011,08,21,02,00,17.00
2011,08,21,02,01,17.00
2011,08,21,02,02,17.00
2011,08,21,02,03,17.00
2011,08,21,02,04,16.90
2011,08,21,02,05,16.90
2011,08,21,02,06,16.90
2011,08,21,02,07,16.90
2011,08,21,02,08,16.90
2011,08,21,02,09,16.90
2011,08,21,02,10,16.90
2011,08,21,02,11,16.90
2011,08,21,02,12,16.90
2011,08,21,02,13,16.90
2011,08,21,02,14,16.90
2011,08,21,02,15,16.90
2011,08,21,02,16,16.90
2011,08,21,02,17,16.90
2011,08,21,02,18,16.90
2011,08,21,02,19,16.90
2011,08,21,02,20,16.90
2011,08,21,02,21,16.80
2011,08,21,02,22,16.80
2011,08,21,02,23,16.80
2011,08,21,02,24,16.80
2011,08,21,02,25,16.80
2011,08,21,02,26,16.80
2011,08,21,02,27,16.80
2011,08,21,02,28,16.80
2011,08,21,02,29,16.80
2011,08,21,02,30,16.80
2011,08,21,02,31,16.80
2011,08,21,02,32,16.80
2011,08,21,02,33,16.80
2011,08,21,02,34,16.80
2011,08,21,02,35,16.80
2011,08,21,02,36,16.80
2011,08,21,02,37,16.80
2011,08,21,02,38,16.80
2011,08,21,02,39,16.80
2011,08,21,02,40,16.80
2011,08,21,02,41,16.80
2011,08,21,02,42,16.80
2011,08,21,02,43,16.70
2011,08,21,02,44,16.70
2011,08,21,02,45,16.70
2011,08,21,02,46,16.70
2011,08,21,02,47,16.70
2011,08,21,02,48,16.70
2011,08,21,02,49,16.70
2011,08,21,02,50,16.70
2011,08,21,02,51,16.70
2011,08,21,02,52,16.70
2011,08,21,02,53,16.70
2011,08,21,02,54,16.70
2011,08,21,02,55,16.80
2011,08,21,02,56,16.80
2011,08,21,02,57,16.80
2011,08,21,02,58,16.80
2011,08,21,02,59,16.80
2011,08,21,03,00,16.80
2011,08,21,03,01,16.90
2011,08,21,03,02,16.90
2011,08,21,03,03,16.90
2011,08,21,03,04,17.00
2011,08,21,03,05,17.00
2011,08,21,03,06,17.00
2011,08,21,03,07,17.00
2011,08,21,03,08,17.00
2011,08,21,03,09,17.10
2011,08,21,03,10,17.10
2011,08,21,03,11,17.10
2011,08,21,03,12,17.10
2011,08,21,03,13,17.10
2011,08,21,03,14,17.10
2011,08,21,03,15,17.10
2011,08,21,03,16,17.10
2011,08,21,03,17,17.10
2011,08,21,03,18,17.10
2011,08,21,03,19,17.10
2011,08,21,03,20,17.10
2011,08,21,03,21,17.10
2011,08,21,03,22,17.00
2011,08,21,03,23,17.00
2011,08,21,03,24,17.00
2011,08,21,03,25,17.00
2011,08,21,03,26,16.90
2011,08,21,03,27,16.90
2011,08,21,03,28,16.90
2011,08,21,03,29,16.90
2011,08,21,03,30,16.90
2011,08,21,03,31,16.90
2011,08,21,03,32,16.80
2011,08,21,03,33,16.80
2011,08,21,03,34,16.80
2011,08,21,03,35,16.80
2011,08,21,03,36,16.80
2011,08,21,03,37,16.80
2011,08,21,03,38,16.80
2011,08,21,03,39,16.80
2011,08,21,03,40,16.70
2011,08,21,03,41,16.70
2011,08,21,03,42,16.70
2011,08,21,03,43,16.70
2011,08,21,03,44,16.70
2011,08,21,03,45,16.70
2011,08,21,03,46,16.60
2011,08,21,03,47,16.60
2011,08,21,03,48,16.60
2011,08,21,03,49,16.60
2011,08,21,03,50,16.50
2011,08,21,03,51,16.50
2011,08,21,03,52,16.50
2011,08,21,03,53,16.40
2011,08,21,03,54,16.40
2011,08,21,03,55,16.40
2011,08,21,03,56,16.40
2011,08,21,03,57,16.40
2011,08,21,03,58,16.30
2011,08,21,03,59,16.30
2011,08,21,04,00,16.30
2011,08,21,04,01,16.30
2011,08,21,04,02,16.30
2011,08,21,04,03,16.30
2011,08,21,04,04,16.30
2011,08,21,04,05,16.20
2011,08,21,04,06,16.20
2011,08,21,04,07,16.20
2011,08,21,04,08,16.20
2011,08,21,04,09,16.20
2011,08,21,04,10,16.20
2011,08,21,04,11,16.20
2011,08,21,04,12,16.20
2011,08,21,04,13,16.20
2011,08,21,04,14,16.10
2011,08,21,04,15,16.10
2011,08,21,04,16,16.10
2011,08,21,04,17,16.10
2011,08,21,04,18,16.10
2011,08,21,04,19,16.10
2011,08,21,04,20,16.10
2011,08,21,04,21,16.10
2011,08,21,04,22,16.10
2011,08,21,04,23,16.10
2011,08,21,04,24,16.10
2011,08,21,04,25,16.10
2011,08,21,04,26,16.10
2011,08,21,04,27,16.10
2011,08,21,04,28,16.10
2011,08,21,04,29,16.10
2011,08,21,04,30,16.10
2011,08,21,04,31,16.10
2011,08,21,04,32,16.00
2011,08,21,04,33,16.00
2011,08,21,04,34,16.00
2011,08,21,04,35,16.00
2011,08,21,04,36,15.90
2011,08,21,04,37,15.90
2011,08,21,04,38,15.90
2011,08,21,04,39,15.90
2011,08,21,04,40,15.90
2011,08,21,04,41,15.90
2011,08,21,04,42,15.90
2011,08,21,04,43,15.90
2011,08,21,04,44,15.90
2011,08,21,04,45,15.90
2011,08,21,04,46,15.90
2011,08,21,04,47,15.80
2011,08,21,04,48,15.80
2011,08,21,04,49,15.80
2011,08,21,04,50,15.80
2011,08,21,04,51,15.80
2011,08,21,04,52,15.80
2011,08,21,04,53,15.80
2011,08,21,04,54,15.80
2011,08,21,04,55,15.80
2011,08,21,04,56,15.80
2011,08,21,04,57,15.80
2011,08,21,04,58,15.80
2011,08,21,04,59,15.80
2011,08,21,05,00,15.80
2011,08,21,05,01,15.80
2011,08,21,05,02,15.80
2011,08,21,05,03,15.80
2011,08,21,05,04,15.80
2011,08,21,05,05,15.80
2011,08,21,05,06,15.80
2011,08,21,05,07,15.80
2011,08,21,05,08,15.80
2011,08,21,05,09,15.80
2011,08,21,05,10,15.80
2011,08,21,05,11,15.80
2011,08,21,05,12,15.70
2011,08,21,05,13,15.70
2011,08,21,05,14,15.70
2011,08,21,05,15,15.70
2011,08,21,05,16,15.70
2011,08,21,05,17,15.70
2011,08,21,05,18,15.70
2011,08,21,05,19,15.70
2011,08,21,05,20,15.70
2011,08,21,05,21,15.70
2011,08,21,05,22,15.70
2011,08,21,05,23,15.70
2011,08,21,05,24,15.60
2011,08,21,05,25,15.60
2011,08,21,05,26,15.60
2011,08,21,05,27,15.60
2011,08,21,05,28,15.60
2011,08,21,05,29,15.60
2011,08,21,05,30,15.60
2011,08,21,05,31,15.60
2011,08,21,05,32,15.60
2011,08,21,05,33,15.60
2011,08,21,05,34,15.60
2011,08,21,05,35,15.60
2011,08,21,05,36,15.60
2011,08,21,05,37,15.60
2011,08,21,05,38,15.60
2011,08,21,05,39,15.60
2011,08,21,05,40,15.60
2011,08,21,05,41,15.60
2011,08,21,05,42,15.60
2011,08,21,05,43,15.60
2011,08,21,05,44,15.60
2011,08,21,05,45,15.60
2011,08,21,05,46,15.60
2011,08,21,05,47,15.60
2011,08,21,05,48,15.60
2011,08,21,05,49,15.60
2011,08,21,05,50,15.60
2011,08,21,05,51,15.60
2011,08,21,05,52,15.60
2011,08,21,05,53,15.60
2011,08,21,05,54,15.60
2011,08,21,05,55,15.60
2011,08,21,05,56,15.60
2011,08,21,05,57,15.60
2011,08,21,05,58,15.60
2011,08,21,05,59,15.60
2011,08,21,06,00,15.60
2011,08,21,06,01,15.60
2011,08,21,06,02,15.60
2011,08,21,06,03,15.60
2011,08,21,06,04,15.60
2011,08,21,06,05,15.60
2011,08,21,06,06,15.60
2011,08,21,06,07,15.60
2011,08,21,06,08,15.60
2011,08,21,06,09,15.60
2011,08,21,06,10,15.60
2011,08,21,06,11,15.60
2011,08,21,06,12,15.60
2011,08,21,06,13,15.60
2011,08,21,06,14,15.60
2011,08,21,06,15,15.60
2011,08,21,06,16,15.60
2011,08,21,06,17,15.60
2011,08,21,06,18,15.60
2011,08,21,06,19,15.60
2011,08,21,06,20,15.60
2011,08,21,06,21,15.60
2011,08,21,06,22,15.60
2011,08,21,06,23,15.60
2011,08,21,06,24,15.60
2011,08,21,06,25,15.60
2011,08,21,06,26,15.60
2011,08,21,06,27,15.60
2011,08,21,06,28,15.50
2011,08,21,06,29,15.50
2011,08,21,06,30,15.50
2011,08,21,06,31,15.50
2011,08,21,06,32,15.50
2011,08,21,06,33,15.50
2011,08,21,06,34,15.50
2011,08,21,06,35,15.40
2011,08,21,06,36,15.40
2011,08,21,06,37,15.40
2011,08,21,06,38,15.40
2011,08,21,06,39,15.40
2011,08,21,06,40,15.40
2011,08,21,06,41,15.40
2011,08,21,06,42,15.40
2011,08,21,06,43,15.40
2011,08,21,06,44,15.40
2011,08,21,06,45,15.40
2011,08,21,06,46,15.40
2011,08,21,06,47,15.40
2011,08,21,06,48,15.40
2011,08,21,06,49,15.40
2011,08,21,06,50,15.50
2011,08,21,06,51,15.50
2011,08,21,06,52,15.50
2011,08,21,06,53,15.60
2011,08,21,06,54,15.60
2011,08,21,06,55,15.60
2011,08,21,06,56,15.60
2011,08,21,06,57,15.60
2011,08,21,06,58,15.60
2011,08,21,06,59,15.70
2011,08,21,07,00,15.70
2011,08,21,07,01,15.70
2011,08,21,07,02,15.70
2011,08,21,07,03,15.70
2011,08,21,07,04,15.70
2011,08,21,07,05,15.70
2011,08,21,07,06,15.70
2011,08,21,07,07,15.70
2011,08,21,07,08,15.80
2011,08,21,07,09,15.80
2011,08,21,07,10,15.80
2011,08,21,07,11,15.80
2011,08,21,07,12,15.80
2011,08,21,07,13,15.80
2011,08,21,07,14,15.80
2011,08,21,07,15,15.80
2011,08,21,07,16,15.80
2011,08,21,07,17,15.80
2011,08,21,07,18,15.90
2011,08,21,07,19,15.90
2011,08,21,07,20,15.90
2011,08,21,07,21,15.90
2011,08,21,07,22,15.90
2011,08,21,07,23,16.00
2011,08,21,07,24,16.00
2011,08,21,07,25,16.00
2011,08,21,07,26,16.10
2011,08,21,07,27,16.10
2011,08,21,07,28,16.10
2011,08,21,07,29,16.10
2011,08,21,07,30,16.10
2011,08,21,07,31,16.20
2011,08,21,07,32,16.20
2011,08,21,07,33,16.20
2011,08,21,07,34,16.20
2011,08,21,07,35,16.20
2011,08,21,07,36,16.20
2011,08,21,07,37,16.30
2011,08,21,07,38,16.30
2011,08,21,07,39,16.30
2011,08,21,07,40,16.30
2011,08,21,07,41,16.30
2011,08,21,07,42,16.30
2011,08,21,07,43,16.40
2011,08,21,07,44,16.40
2011,08,21,07,45,16.40
2011,08,21,07,46,16.40
2011,08,21,07,47,16.50
2011,08,21,07,48,16.50
2011,08,21,07,49,16.50
2011,08,21,07,50,16.60
2011,08,21,07,51,16.60
2011,08,21,07,52,16.60
2011,08,21,07,53,16.70
2011,08,21,07,54,16.70
2011,08,21,07,55,16.70
2011,08,21,07,56,16.80
2011,08,21,07,57,16.80
2011,08,21,07,58,16.80
2011,08,21,07,59,16.90
2011,08,21,08,00,16.90
2011,08,21,08,01,16.90
2011,08,21,08,02,17.00
2011,08,21,08,03,17.10
2011,08,21,08,04,17.10
2011,08,21,08,05,17.20
2011,08,21,08,06,17.20
2011,08,21,08,07,17.30
2011,08,21,08,08,17.30
2011,08,21,08,09,17.30
2011,08,21,08,10,17.40
2011,08,21,08,11,17.40
2011,08,21,08,12,17.50
2011,08,21,08,13,17.50
2011,08,21,08,14,17.60
2011,08,21,08,15,17.60
2011,08,21,08,16,17.60
2011,08,21,08,17,17.70
2011,08,21,08,18,17.70
2011,08,21,08,19,17.70
2011,08,21,08,20,17.70
2011,08,21,08,21,17.80
2011,08,21,08,22,17.80
2011,08,21,08,23,17.80
2011,08,21,08,24,17.90
2011,08,21,08,25,17.90
2011,08,21,08,26,17.90
2011,08,21,08,27,18.00
2011,08,21,08,28,18.00
2011,08,21,08,29,18.10
2011,08,21,08,30,18.10
2011,08,21,08,31,18.20
2011,08,21,08,32,18.30
2011,08,21,08,33,18.30
2011,08,21,08,34,18.40
2011,08,21,08,35,18.40
2011,08,21,08,36,18.50
2011,08,21,08,37,18.60
2011,08,21,08,38,18.70
2011,08,21,08,39,18.70
2011,08,21,08,40,18.80
2011,08,21,08,41,18.90
2011,08,21,08,42,19.00
2011,08,21,08,43,19.20
2011,08,21,08,44,19.30
2011,08,21,08,45,19.40
2011,08,21,08,46,19.50
2011,08,21,08,47,19.60
2011,08,21,08,48,19.60
2011,08,21,08,49,19.70
2011,08,21,08,50,19.70
2011,08,21,08,51,19.70
2011,08,21,08,52,19.70
2011,08,21,08,53,19.80
2011,08,21,08,54,19.80
2011,08,21,08,55,19.80
2011,08,21,08,56,19.80
2011,08,21,08,57,19.80
2011,08,21,08,58,19.80
2011,08,21,08,59,19.80
2011,08,21,09,00,19.90
2011,08,21,09,01,19.90
2011,08,21,09,02,19.90
2011,08,21,09,03,19.90
2011,08,21,09,04,19.90
2011,08,21,09,05,19.90
2011,08,21,09,06,19.90
2011,08,21,09,07,19.90
2011,08,21,09,08,19.90
2011,08,21,09,09,19.90
2011,08,21,09,10,19.90
2011,08,21,09,11,19.90
2011,08,21,09,12,19.90
2011,08,21,09,13,20.00
2011,08,21,09,14,20.00
2011,08,21,09,15,20.10
2011,08,21,09,16,20.10
2011,08,21,09,17,20.20
2011,08,21,09,18,20.20
2011,08,21,09,19,20.30
2011,08,21,09,20,20.30
2011,08,21,09,21,20.40
2011,08,21,09,22,20.40
2011,08,21,09,23,20.50
2011,08,21,09,24,20.60
2011,08,21,09,25,20.60
2011,08,21,09,26,20.70
2011,08,21,09,27,20.70
2011,08,21,09,28,20.70
2011,08,21,09,29,20.70
2011,08,21,09,30,20.80
2011,08,21,09,31,20.80
2011,08,21,09,32,20.80
2011,08,21,09,33,20.80
2011,08,21,09,34,20.90
2011,08,21,09,35,20.90
2011,08,21,09,36,20.90
2011,08,21,09,37,20.90
2011,08,21,09,38,20.90
2011,08,21,09,39,21.00
2011,08,21,09,40,21.10
2011,08,21,09,41,21.10
2011,08,21,09,42,21.20
2011,08,21,09,43,21.20
2011,08,21,09,44,21.30
2011,08,21,09,45,21.40
2011,08,21,09,46,21.50
2011,08,21,09,47,21.60
2011,08,21,09,48,21.70
2011,08,21,09,49,21.90
2011,08,21,09,50,22.00
2011,08,21,09,51,22.20
2011,08,21,09,52,22.40
2011,08,21,09,53,22.50
2011,08,21,09,54,22.60
2011,08,21,09,55,22.70
2011,08,21,09,56,22.70
2011,08,21,09,57,22.70
2011,08,21,09,58,22.70
2011,08,21,09,59,22.70
2011,08,21,10,00,22.70
2011,08,21,10,01,22.60
2011,08,21,10,02,22.60
2011,08,21,10,03,22.60
2011,08,21,10,04,22.60
2011,08,21,10,05,22.60
2011,08,21,10,06,22.70
2011,08,21,10,07,22.80
2011,08,21,10,08,22.80
2011,08,21,10,09,22.80
2011,08,21,10,10,22.80
2011,08,21,10,11,22.90
2011,08,21,10,12,22.90
2011,08,21,10,13,23.00
2011,08,21,10,14,23.00
2011,08,21,10,15,23.10
2011,08,21,10,16,23.10
2011,08,21,10,17,23.20
2011,08,21,10,18,23.20
2011,08,21,10,19,23.20
2011,08,21,10,20,23.30
2011,08,21,10,21,23.30
2011,08,21,10,22,23.30
2011,08,21,10,23,23.30
2011,08,21,10,24,23.40
2011,08,21,10,25,23.40
2011,08,21,10,26,23.30
2011,08,21,10,27,23.30
2011,08,21,10,28,23.30
2011,08,21,10,29,23.30
2011,08,21,10,30,23.20
2011,08,21,10,31,23.20
2011,08,21,10,32,23.10
2011,08,21,10,33,23.10
2011,08,21,10,34,23.10
2011,08,21,10,35,23.10
2011,08,21,10,36,23.10
2011,08,21,10,37,23.10
2011,08,21,10,38,23.20
2011,08,21,10,39,23.30
2011,08,21,10,40,23.30
2011,08,21,10,41,23.50
2011,08,21,10,42,23.60
2011,08,21,10,43,23.70
2011,08,21,10,44,23.90
2011,08,21,10,45,24.00
2011,08,21,10,46,24.20
2011,08,21,10,47,24.20
2011,08,21,10,48,24.30
2011,08,21,10,49,24.30
2011,08,21,10,50,24.30
2011,08,21,10,51,24.20
2011,08,21,10,52,24.10
2011,08,21,10,53,24.10
2011,08,21,10,54,24.00
2011,08,21,10,55,23.90
2011,08,21,10,56,23.80
2011,08,21,10,57,23.80
2011,08,21,10,58,23.80
2011,08,21,10,59,23.80
2011,08,21,11,00,23.70
2011,08,21,11,01,23.60
2011,08,21,11,02,23.60
2011,08,21,11,03,23.50
2011,08,21,11,04,23.40
2011,08,21,11,05,23.40
2011,08,21,11,06,23.40
2011,08,21,11,07,23.50
2011,08,21,11,08,23.50
2011,08,21,11,09,23.60
2011,08,21,11,10,23.70
2011,08,21,11,11,23.80
2011,08,21,11,12,23.80
2011,08,21,11,13,23.90
2011,08,21,11,14,24.00
2011,08,21,11,15,24.10
2011,08,21,11,16,24.20
2011,08,21,11,17,24.30
2011,08,21,11,18,24.40
2011,08,21,11,19,24.50
2011,08,21,11,20,24.60
2011,08,21,11,21,24.70
2011,08,21,11,22,24.80
2011,08,21,11,23,24.90
2011,08,21,11,24,24.90
2011,08,21,11,25,25.00
2011,08,21,11,26,25.00
2011,08,21,11,27,25.00
2011,08,21,11,28,25.10
2011,08,21,11,29,25.10
2011,08,21,11,30,25.10
2011,08,21,11,31,25.10
2011,08,21,11,32,25.20
2011,08,21,11,33,25.20
2011,08,21,11,34,25.20
2011,08,21,11,35,25.20
2011,08,21,11,36,25.30
2011,08,21,11,37,25.40
2011,08,21,11,38,25.50
2011,08,21,11,39,25.70
2011,08,21,11,40,25.90
2011,08,21,11,41,26.00
2011,08,21,11,42,26.20
2011,08,21,11,43,26.30
2011,08,21,11,44,26.40
2011,08,21,11,45,26.60
2011,08,21,11,46,26.60
2011,08,21,11,47,26.60
2011,08,21,11,48,26.60
2011,08,21,11,49,26.60
2011,08,21,11,50,26.60
2011,08,21,11,51,26.60
2011,08,21,11,52,26.60
2011,08,21,11,53,26.70
2011,08,21,11,54,26.80
2011,08,21,11,55,26.80
2011,08,21,11,56,26.70
2011,08,21,11,57,26.60
2011,08,21,11,58,26.50
2011,08,21,11,59,26.50
2011,08,21,12,00,26.40
2011,08,21,12,01,26.40
2011,08,21,12,02,26.30
2011,08,21,12,03,26.30
2011,08,21,12,04,26.20
2011,08,21,12,05,26.20
2011,08,21,12,06,26.20
2011,08,21,12,07,26.20
2011,08,21,12,08,26.30
2011,08,21,12,09,26.40
2011,08,21,12,10,26.40
2011,08,21,12,11,26.40
2011,08,21,12,12,26.50
2011,08,21,12,13,26.50
2011,08,21,12,14,26.40
2011,08,21,12,15,26.40
2011,08,21,12,16,26.30
2011,08,21,12,17,26.10
2011,08,21,12,18,26.10
2011,08,21,12,19,26.10
2011,08,21,12,20,26.00
2011,08,21,12,21,25.90
2011,08,21,12,22,25.90
2011,08,21,12,23,25.80
2011,08,21,12,24,25.70
2011,08,21,12,25,25.70
2011,08,21,12,26,25.70
2011,08,21,12,27,25.60
2011,08,21,12,28,25.60
2011,08,21,12,29,25.60
2011,08,21,12,30,25.50
2011,08,21,12,31,25.50
2011,08,21,12,32,25.40
2011,08,21,12,33,25.30
2011,08,21,12,34,25.30
2011,08,21,12,35,25.20
2011,08,21,12,36,25.20
2011,08,21,12,37,25.30
2011,08,21,12,38,25.30
2011,08,21,12,39,25.40
2011,08,21,12,40,25.50
2011,08,21,12,41,25.50
2011,08,21,12,42,25.50
2011,08,21,12,43,25.60
2011,08,21,12,44,25.60
2011,08,21,12,45,25.60
2011,08,21,12,46,25.50
2011,08,21,12,47,25.50
2011,08,21,12,48,25.40
2011,08,21,12,49,25.40
2011,08,21,12,50,25.50
2011,08,21,12,51,25.50
2011,08,21,12,52,25.50
2011,08,21,12,53,25.60
2011,08,21,12,54,25.60
2011,08,21,12,55,25.60
2011,08,21,12,56,25.60
2011,08,21,12,57,25.60
2011,08,21,12,58,25.60
2011,08,21,12,59,25.60
2011,08,21,13,00,25.60
2011,08,21,13,01,25.60
2011,08,21,13,02,25.70
2011,08,21,13,03,25.70
2011,08,21,13,04,25.70
2011,08,21,13,05,25.80
2011,08,21,13,06,25.80
2011,08,21,13,07,25.80
2011,08,21,13,08,25.70
2011,08,21,13,09,25.80
2011,08,21,13,10,25.80
2011,08,21,13,11,25.90
2011,08,21,13,12,26.00
2011,08,21,13,13,26.10
2011,08,21,13,14,26.10
2011,08,21,13,15,26.20
2011,08,21,13,16,26.20
2011,08,21,13,17,26.20
2011,08,21,13,18,26.30
2011,08,21,13,19,26.30
2011,08,21,13,20,26.30
2011,08,21,13,21,26.30
2011,08,21,13,22,26.30
2011,08,21,13,23,26.40
2011,08,21,13,24,26.50
2011,08,21,13,25,26.60
2011,08,21,13,26,26.60
2011,08,21,13,27,26.60
2011,08,21,13,28,26.60
2011,08,21,13,29,26.70
2011,08,21,13,30,26.70
2011,08,21,13,31,26.80
2011,08,21,13,32,26.80
2011,08,21,13,33,26.70
2011,08,21,13,34,26.70
2011,08,21,13,35,26.80
2011,08,21,13,36,26.80
2011,08,21,13,37,26.90
2011,08,21,13,38,27.00
2011,08,21,13,39,27.10
2011,08,21,13,40,27.20
2011,08,21,13,41,27.20
2011,08,21,13,42,27.30
2011,08,21,13,43,27.30
2011,08,21,13,44,27.30
2011,08,21,13,45,27.30
2011,08,21,13,46,27.30
2011,08,21,13,47,27.20
2011,08,21,13,48,27.20
2011,08,21,13,49,27.30
2011,08,21,13,50,27.30
2011,08,21,13,51,27.30
2011,08,21,13,52,27.30
2011,08,21,13,53,27.30
2011,08,21,13,54,27.20
2011,08,21,13,55,27.10
2011,08,21,13,56,27.10
2011,08,21,13,57,27.00
2011,08,21,13,58,26.90
2011,08,21,13,59,27.00
2011,08,21,14,00,27.10
2011,08,21,14,01,27.10
2011,08,21,14,02,27.20
2011,08,21,14,03,27.20
2011,08,21,14,04,27.20
2011,08,21,14,05,27.20
2011,08,21,14,06,27.20
2011,08,21,14,07,27.20
2011,08,21,14,08,27.20
2011,08,21,14,09,27.20
2011,08,21,14,10,27.20
2011,08,21,14,11,27.20
2011,08,21,14,12,27.10
2011,08,21,14,13,27.00
2011,08,21,14,14,27.00
2011,08,21,14,15,26.90
2011,08,21,14,16,26.90
2011,08,21,14,17,26.90
2011,08,21,14,18,26.90
2011,08,21,14,19,26.90
2011,08,21,14,20,26.90
2011,08,21,14,21,26.90
2011,08,21,14,22,26.90
2011,08,21,14,23,26.90
2011,08,21,14,24,26.90
2011,08,21,14,25,26.80
2011,08,21,14,26,26.80
2011,08,21,14,27,26.90
2011,08,21,14,28,26.90
2011,08,21,14,29,26.90
2011,08,21,14,30,26.80
2011,08,21,14,31,26.70
2011,08,21,14,32,26.60
2011,08,21,14,33,26.50
2011,08,21,14,34,26.40
2011,08,21,14,35,26.40
2011,08,21,14,36,26.30
2011,08,21,14,37,26.30
2011,08,21,14,38,26.20
2011,08,21,14,39,26.20
2011,08,21,14,40,26.20
2011,08,21,14,41,26.20
2011,08,21,14,42,26.30
2011,08,21,14,43,26.30
2011,08,21,14,44,26.30
2011,08,21,14,45,26.30
2011,08,21,14,46,26.30
2011,08,21,14,47,26.30
2011,08,21,14,48,26.30
2011,08,21,14,49,26.20
2011,08,21,14,50,26.20
2011,08,21,14,51,26.20
2011,08,21,14,52,26.10
2011,08,21,14,53,26.10
2011,08,21,14,54,26.00
2011,08,21,14,55,25.90
2011,08,21,14,56,25.80
2011,08,21,14,57,25.70
2011,08,21,14,58,25.60
2011,08,21,14,59,25.60
2011,08,21,15,00,25.60
2011,08,21,15,01,25.60
2011,08,21,15,02,25.60
2011,08,21,15,03,25.60
2011,08,21,15,04,25.50
2011,08,21,15,05,25.50
2011,08,21,15,06,25.50
2011,08,21,15,07,25.50
2011,08,21,15,08,25.50
2011,08,21,15,09,25.60
2011,08,21,15,10,25.60
2011,08,21,15,11,25.70
2011,08,21,15,12,25.70
2011,08,21,15,13,25.70
2011,08,21,15,14,25.70
2011,08,21,15,15,25.70
2011,08,21,15,16,25.70
2011,08,21,15,17,25.70
2011,08,21,15,18,25.70
2011,08,21,15,19,25.70
2011,08,21,15,20,25.70
2011,08,21,15,21,25.70
2011,08,21,15,22,25.70
2011,08,21,15,23,25.80
2011,08,21,15,24,25.80
2011,08,21,15,25,25.90
2011,08,21,15,26,26.00
2011,08,21,15,27,26.00
2011,08,21,15,28,26.10
2011,08,21,15,29,26.20
2011,08,21,15,30,26.20
2011,08,21,15,31,26.20
2011,08,21,15,32,26.20
2011,08,21,15,33,26.20
2011,08,21,15,34,26.10
2011,08,21,15,35,26.10
2011,08,21,15,36,26.10
2011,08,21,15,37,26.10
2011,08,21,15,38,26.10
2011,08,21,15,39,26.10
2011,08,21,15,40,26.10
2011,08,21,15,41,26.10
2011,08,21,15,42,26.10
2011,08,21,15,43,26.10
2011,08,21,15,44,26.10
2011,08,21,15,45,26.20
2011,08,21,15,46,26.20
2011,08,21,15,47,26.20
2011,08,21,15,48,26.30
2011,08,21,15,49,26.30
2011,08,21,15,50,26.30
2011,08,21,15,51,26.30
2011,08,21,15,52,26.40
2011,08,21,15,53,26.30
2011,08,21,15,54,26.30
2011,08,21,15,55,26.30
2011,08,21,15,56,26.30
2011,08,21,15,57,26.30
2011,08,21,15,58,26.30
2011,08,21,15,59,26.30
2011,08,21,16,00,26.30
2011,08,21,16,01,26.30
2011,08,21,16,02,26.30
2011,08,21,16,03,26.20
2011,08,21,16,04,26.20
2011,08,21,16,05,26.20
2011,08,21,16,06,26.20
2011,08,21,16,07,26.20
2011,08,21,16,08,26.20
2011,08,21,16,09,26.20
2011,08,21,16,10,26.20
2011,08,21,16,11,26.20
2011,08,21,16,12,26.10
2011,08,21,16,13,26.10
2011,08,21,16,14,26.10
2011,08,21,16,15,26.10
2011,08,21,16,16,26.10
2011,08,21,16,17,26.10
2011,08,21,16,18,26.10
2011,08,21,16,19,26.20
2011,08,21,16,20,26.20
2011,08,21,16,21,26.20
2011,08,21,16,22,26.30
2011,08,21,16,23,26.30
2011,08,21,16,24,26.20
2011,08,21,16,25,26.30
2011,08,21,16,26,26.30
2011,08,21,16,27,26.30
2011,08,21,16,28,26.30
2011,08,21,16,29,26.30
2011,08,21,16,30,26.30
2011,08,21,16,31,26.30
2011,08,21,16,32,26.30
2011,08,21,16,33,26.30
2011,08,21,16,34,26.30
2011,08,21,16,35,26.30
2011,08,21,16,36,26.40
2011,08,21,16,37,26.40
2011,08,21,16,38,26.40
2011,08,21,16,39,26.40
2011,08,21,16,40,26.40
2011,08,21,16,41,26.50
2011,08,21,16,42,26.50
2011,08,21,16,43,26.60
2011,08,21,16,44,26.60
2011,08,21,16,45,26.70
2011,08,21,16,46,26.80
2011,08,21,16,47,26.80
2011,08,21,16,48,26.80
2011,08,21,16,49,26.80
2011,08,21,16,50,26.70
2011,08,21,16,51,26.70
2011,08,21,16,52,26.70
2011,08,21,16,53,26.80
2011,08,21,16,54,26.80
2011,08,21,16,55,26.80
2011,08,21,16,56,26.80
2011,08,21,16,57,26.80
2011,08,21,16,58,26.80
2011,08,21,16,59,26.90
2011,08,21,17,00,26.90
2011,08,21,17,01,26.90
2011,08,21,17,02,27.00
2011,08,21,17,03,27.10
2011,08,21,17,04,27.10
2011,08,21,17,05,27.10
2011,08,21,17,06,27.10
2011,08,21,17,07,27.10
2011,08,21,17,08,27.00
2011,08,21,17,09,27.00
2011,08,21,17,10,26.90
2011,08,21,17,11,26.80
2011,08,21,17,12,26.80
2011,08,21,17,13,26.70
2011,08,21,17,14,26.60
2011,08,21,17,15,26.50
2011,08,21,17,16,26.40
2011,08,21,17,17,26.40
2011,08,21,17,18,26.40
2011,08,21,17,19,26.30